Find DSP F2

NORAD ID: 5204 Int'l Des: 1971-039 Owner: SAMSO Country: US operational
HEOCIRCULAR

Live-Position

3D-Globus wird geladen...

Über DSP F2

Beschreibung wird geladen...

Nächste Überflüge

Passes for default location (London). Set your location on the main map for personalized predictions.

Höhenverlauf

Loading altitude history...

Zweizeiliger Elementsatz

1 5204U 71039A 26129.32544727 -.00000172 00000-0 00000+0 0 9995
2 5204 0.2940 33.6327 0021612 260.3726 37.0082 0.98163014205841
Epoch: 9. Mai 2026 • Age: 12 hours

Aktueller Status

Höhe 36468.1 km
Geschwindigkeit 3.05 km/s
Subsatellitenpunkt 0.26°N, 17.12°W
Typ military

Most Searched